Location: Fluertsh�userhof
(48.7537°N, 10.3850°E)
Time: 14:30:54
(UTC+00:00)

Ariane Rocket - Pass Details

Date: 18 September 2020
Orbit: 761 x 769 km, 98.7° (Epoch: 24 October)

Event Time Altitude Azimuth Distance (km) Brightness Sun altitude
Exits shadow 18:09:46 - 139° (SE) 2,879 5.5 -8.3°
Reaches altitude 10° 18:11:18 10° 134° (SE) 2,296 5.0 -8.5°
Maximum altitude 18:15:59 40° 66° (ENE) 1,116 3.5 -9.3°
Drops below altitude 10° 18:20:44 10° 358° (N) 2,316 5.7 -10.0°
Sets 18:23:09 0° 351° (N) 3,248 6.6 -10.4°
